| time (UTC) | temp F | wind direction | speed knots | gust knots | rain 1hr in | rain 24hr in | rain mn in | humidity % | barometer mb |
| 20260906030554 | 72 | 282 | 0.0 | 0.0 | 0.00 | 1.68 | 1.69 | 87 | 1012.4 |
| 20260906025612 | 72 | 270 | 0.0 | 0.0 | 0.00 | 1.68 | 1.69 | 87 | 1012.3 |
| 20260906024539 | 72 | 267 | 0.0 | 0.0 | 0.00 | 1.68 | 1.69 | 86 | 1012.3 |
| 20260906023509 | 72 | 274 | 0.0 | 0.0 | 0.00 | 1.68 | 1.69 | 86 | 1012.2 |
| 20260906022528 | 72 | 267 | 0.0 | 0.0 | 0.00 | 1.68 | 1.69 | 86 | 1012.2 |
| 20260906020351 | 72 | 282 | 0.0 | 0.0 | 0.00 | 1.68 | 1.69 | 86 | 1012.1 |
| 20260906015406 | 73 | 285 | 0.0 | 0.0 | 0.00 | 1.68 | 1.69 | 86 | 1011.9 |
| 20260906014339 | 73 | 275 | 0.0 | 0.0 | 0.00 | 1.68 | 1.69 | 86 | 1011.9 |
| 20260906013347 | 73 | 200 | 0.0 | 0.0 | 0.00 | 1.68 | 1.69 | 87 | 1011.8 |
| 20260906012403 | 72 | 300 | 0.0 | 0.0 | 0.00 | 1.68 | 1.69 | 86 | 1011.6 |
| 20260906011421 | 73 | 282 | 0.0 | 0.0 | 0.00 | 1.68 | 1.69 | 86 | 1011.4 |
| 20260906010351 | 73 | 316 | 0.0 | 0.0 | 0.00 | 1.68 | 1.69 | 86 | 1011.3 |
| 20260906005326 | 73 | 285 | 0.0 | 0.0 | 0.00 | 1.68 | 1.69 | 85 | 1011.2 |
| 20260906004254 | 73 | 296 | 0.0 | 0.0 | 0.00 | 1.68 | 1.69 | 85 | 1011.1 |
| 20260906003227 | 73 | 299 | 0.0 | 0.0 | 0.00 | 1.68 | 1.69 | 86 | 1011.2 |
| 20260906002248 | 73 | 281 | 0.0 | 0.0 | 0.00 | 1.68 | 1.69 | 86 | 1011.3 |
| 20260906000109 | 74 | 222 | 0.0 | 0.0 | 0.00 | 1.68 | 1.69 | 86 | 1011.4 |
| 20260905235123 | 74 | 254 | 0.0 | 1.7 | 0.00 | 1.68 | 1.69 | 86 | 1011.4 |
| 20260905234049 | 74 | 292 | 0.0 | 0.0 | 0.00 | 1.68 | 1.69 | 86 | 1011.1 |
| 20260905233030 | 74 | 197 | 0.0 | 0.0 | 0.00 | 1.68 | 1.69 | 86 | 1011.0 |
| 20260905232054 | 75 | 266 | 0.0 | 0.0 | 0.00 | 1.68 | 1.69 | 85 | 1010.9 |
| 20260905230019 | 76 | 304 | 0.0 | 0.0 | 0.00 | 1.68 | 1.69 | 85 | 1010.5 |
| 20260905225007 | 76 | 284 | 0.0 | 0.9 | 0.00 | 1.68 | 1.69 | 83 | 1010.4 |
| 20260905222908 | 77 | 305 | 0.0 | 0.0 | 0.00 | 1.68 | 1.69 | 82 | 1010.0 |
| 20260905220736 | 78 | 243 | 0.0 | 0.0 | 0.00 | 1.68 | 1.69 | 80 | 1009.7 |
| 20260905214626 | 79 | 275 | 0.0 | 0.0 | 0.00 | 1.68 | 1.69 | 79 | 1009.6 |
| 20260905213626 | 80 | 323 | 0.0 | 0.0 | 0.00 | 1.68 | 1.69 | 80 | 1009.3 |
| 20260905212634 | 79 | 297 | 0.0 | 0.0 | 0.00 | 1.68 | 1.69 | 78 | 1009.4 |
| 20260905211640 | 80 | 273 | 0.0 | 2.6 | 0.00 | 1.68 | 1.69 | 78 | 1009.4 |
| 20260905205553 | 81 | 323 | 0.0 | 0.0 | 0.00 | 1.68 | 1.69 | 78 | 1009.6 |
| 20260905204537 | 81 | 291 | 0.0 | 0.0 | 0.00 | 1.68 | 1.69 | 79 | 1009.6 |
| 20260905203505 | 80 | 280 | 0.0 | 0.0 | 0.00 | 1.68 | 1.69 | 80 | 1009.6 |
| 20260905202519 | 80 | 316 | 0.0 | 0.0 | 0.00 | 1.68 | 1.69 | 81 | 1009.9 |
| 20260905200423 | 80 | 247 | 0.0 | 0.0 | 0.00 | 1.68 | 1.69 | 82 | 1009.9 |
| 20260905195404 | 79 | 201 | 0.0 | 0.0 | 0.00 | 1.68 | 1.69 | 82 | 1009.9 |
| 20260905194408 | 79 | 207 | 0.0 | 0.0 | 0.00 | 1.68 | 1.69 | 82 | 1010.1 |
| 20260905193342 | 80 | 207 | 0.0 | 0.0 | 0.00 | 1.68 | 1.69 | 81 | 1010.1 |
| 20260905192327 | 80 | 186 | 0.0 | 0.0 | 0.00 | 1.68 | 1.69 | 81 | 1010.1 |
| 20260905190156 | 80 | 186 | 0.0 | 0.0 | 0.00 | 1.68 | 1.69 | 80 | 1010.2 |
| 20260905185155 | 80 | 186 | 0.0 | 0.0 | 0.00 | 1.68 | 1.69 | 81 | 1010.2 |
| 20260905184123 | 80 | 169 | 0.0 | 0.0 | 0.00 | 1.68 | 1.69 | 79 | 1010.3 |
| 20260905183122 | 80 | 169 | 0.0 | 0.0 | 0.00 | 1.68 | 1.69 | 80 | 1010.3 |
| 20260905182057 | 80 | 164 | 0.0 | 0.0 | 0.00 | 1.68 | 1.69 | 79 | 1010.3 |
| 20260905181046 | 80 | 186 | 0.0 | 0.0 | 0.00 | 1.68 | 1.69 | 79 | 1010.3 |
| 20260905180029 | 80 | 161 | 0.0 | 0.0 | 0.00 | 1.68 | 1.69 | 79 | 1010.4 |
| 20260905175025 | 81 | 94 | 0.0 | 0.0 | 0.00 | 1.68 | 1.69 | 78 | 1010.3 |
| 20260905174006 | 80 | 165 | 0.0 | 0.0 | 0.00 | 1.68 | 1.69 | 79 | 1010.3 |
| 20260905172954 | 80 | 28 | 0.0 | 0.0 | 0.00 | 1.68 | 1.69 | 79 | 1010.4 |
| 20260905171928 | 79 | 185 | 0.0 | 0.0 | 0.00 | 1.68 | 1.69 | 80 | 1010.4 |
| 20260905170920 | 79 | 182 | 0.0 | 0.0 | 0.00 | 1.68 | 1.69 | 81 | 1010.7 |
| 20260905165921 | 78 | 163 | 0.0 | 0.0 | 0.00 | 1.68 | 1.69 | 83 | 1010.9 |
| 20260905164941 | 78 | 156 | 0.0 | 0.0 | 0.00 | 1.68 | 1.69 | 82 | 1011.1 |
| 20260905163929 | 78 | 169 | 0.0 | 0.0 | 0.00 | 1.68 | 1.69 | 82 | 1011.2 |
| 20260905162917 | 78 | 131 | 0.0 | 0.0 | 0.00 | 1.68 | 1.69 | 81 | 1011.1 |
| 20260905161907 | 79 | 173 | 0.0 | 0.0 | 0.00 | 1.68 | 1.69 | 81 | 1010.9 |
| 20260905155653 | 78 | 200 | 0.0 | 0.0 | 0.00 | 1.68 | 1.69 | 82 | 1010.9 |
| 20260905153505 | 76 | 178 | 0.0 | 0.0 | 0.00 | 1.68 | 1.69 | 86 | 1010.7 |
| 20260905152517 | 76 | 127 | 0.0 | 0.0 | 0.00 | 1.68 | 1.69 | 86 | 1011.2 |
| 20260905151448 | 76 | 191 | 0.0 | 0.0 | 0.00 | 1.68 | 1.69 | 88 | 1010.9 |
| 20260905145300 | 73 | 196 | 0.0 | 0.0 | 0.00 | 1.68 | 1.69 | 88 | 1011.0 |
| 20260905144316 | 73 | 205 | 0.0 | 0.0 | 0.00 | 1.68 | 1.69 | 87 | 1011.0 |
| 20260905143253 | 73 | 175 | 0.0 | 0.0 | 0.00 | 1.68 | 1.69 | 86 | 1011.0 |
| 20260905134918 | 71 | 67 | 0.0 | 0.0 | 0.00 | 1.68 | 1.68 | 85 | 1010.6 |
| 20260905133917 | 71 | 55 | 0.0 | 0.0 | 0.00 | 1.68 | 1.68 | 85 | 1010.6 |
| 20260905130610 | 71 | 126 | 0.0 | 0.0 | 0.00 | 1.68 | 1.68 | 85 | 1010.0 |
| 20260905124443 | 70 | 88 | 0.0 | 0.0 | 0.00 | 1.68 | 1.68 | 85 | 1010.0 |
| 20260905123503 | 70 | 88 | 0.0 | 0.0 | 0.00 | 1.68 | 1.68 | 85 | 1010.0 |
| 20260905122438 | 69 | 88 | 0.0 | 0.0 | 0.00 | 1.68 | 1.68 | 85 | 1010.2 |
| 20260905120326 | 69 | 88 | 0.0 | 0.0 | 0.00 | 1.68 | 1.68 | 85 | 1010.0 |
| 20260905115337 | 69 | 88 | 0.0 | 0.0 | 0.00 | 1.68 | 1.68 | 85 | 1010.2 |
| 20260905114328 | 69 | 88 | 0.0 | 0.0 | 0.00 | 1.68 | 1.68 | 85 | 1010.1 |
| 20260905113254 | 69 | 88 | 0.0 | 0.0 | 0.00 | 1.68 | 1.68 | 85 | 1010.1 |
| 20260905112316 | 69 | 88 | 0.0 | 0.0 | 0.00 | 1.68 | 1.68 | 85 | 1010.0 |
| 20260905111250 | 69 | 123 | 0.0 | 0.0 | 0.00 | 1.68 | 1.68 | 85 | 1009.7 |
| 20260905103856 | 69 | 325 | 0.0 | 0.0 | 0.00 | 1.68 | 1.68 | 85 | 1009.5 |
| 20260905101717 | 69 | 219 | 0.0 | 0.0 | 0.00 | 1.67 | 1.68 | 85 | 1009.5 |